This is the latest recevied weather packets stored in our database for station/object K5NOC-12. If no packets are shown the sender has not sent any weather packets the latest 10 day(s).
| Time | Temp. | Humidity | Pressure | Rain* | Wind** | Luminosity | Snow |
|---|---|---|---|---|---|---|---|
| 1777186417 | 17.22° C | 42% | 1008 hPa | 0 mm | - | - | - |
| 1777185517 | 17.22° C | 40% | 1008.2 hPa | 0 mm | - | - | - |
| 1777184673 | 17.22° C | 39% | 1008.2 hPa | 0 mm | - | - | - |
| 1777184617 | 17.22° C | 39% | 1008.2 hPa | 0 mm | - | - | - |
| 1777183794 | 17.22° C | 39% | 1008.2 hPa | 0 mm | - | - | - |
| 1777183717 | 17.22° C | 39% | 1008.2 hPa | 0 mm | - | - | - |
| 1777182817 | 17.78° C | 37% | 1008.1 hPa | 0 mm | - | - | - |
| 1777181917 | 18.33° C | 37% | 1008.1 hPa | 0 mm | - | - | - |
| 1777181016 | 17.78° C | 37% | 1008 hPa | 0 mm | - | - | - |
| 1777180116 | 17.78° C | 37% | 1008.6 hPa | 0 mm | - | - | - |
| 1777179216 | 17.78° C | 37% | 1008.4 hPa | 0 mm | - | - | - |
| 1777178316 | 17.78° C | 37% | 1008.4 hPa | 0 mm | - | - | - |
| 1777177416 | 17.78° C | 36% | 1008.2 hPa | 0 mm | - | - | - |
| 1777176515 | 18.33° C | 36% | 1008.3 hPa | 0 mm | - | - | - |
| 1777175615 | 18.33° C | 35% | 1008.1 hPa | 0 mm | - | - | - |
| 1777174715 | 18.89° C | 35% | 1007.9 hPa | 0 mm | - | - | - |
| 1777173815 | 19.44° C | 33% | 1008 hPa | 0 mm | - | - | - |
| 1777172914 | 20° C | 32% | 1007.9 hPa | 0 mm | - | - | - |
| 1777172014 | 20.56° C | 31% | 1007.7 hPa | 0 mm | - | - | - |
| 1777171114 | 21.11° C | 30% | 1007.6 hPa | 0 mm | - | - | - |
| 1777170214 | 21.67° C | 30% | 1007.3 hPa | 0 mm | - | - | - |
| 1777169314 | 22.22° C | 28% | 1007 hPa | 0 mm | - | - | - |
| 1777168414 | 22.22° C | 28% | 1006.8 hPa | 0 mm | - | - | - |
| 1777167513 | 23.33° C | 27% | 1006.6 hPa | 0 mm | - | - | - |
| 1777166613 | 23.89° C | 27% | 1006.3 hPa | 0 mm | - | - | - |
* Rain latest hour (hover to see other rain measurements)
** Current wind speed in m/s (hover to see current wind gust speed)